Time,TemperatureF,DewpointF,PressureIn,WindDirection,WindDirectionDegrees,WindSpeedMPH,WindSpeedGustMPH,Humidity,HourlyPrecipIn,Conditions,Clouds,dailyrainin,SoftwareType,DateUTC
2013-02-08 00:00:00,32.4,22.3,30.30,East,86,7.0,11.0,66,0.00,,---,0.00,VWS V14.01,2013-02-08 05:00:00,
2013-02-08 00:01:00,32.4,22.3,30.30,ENE,78,7.0,11.0,66,0.00,,---,0.00,VWS V14.01,2013-02-08 05:01:00,
2013-02-08 00:02:00,32.4,22.3,30.30,ENE,60,7.0,7.0,66,0.00,,---,0.00,VWS V14.01,2013-02-08 05:02:00,
2013-02-08 00:07:00,32.5,22.8,30.30,ENE,74,5.0,10.0,67,0.00,,---,0.00,VWS V14.01,2013-02-08 05:07:00,
2013-02-08 00:12:00,32.5,22.8,30.29,ENE,59,5.0,10.0,67,0.00,,---,0.00,VWS V14.01,2013-02-08 05:12:00,
2013-02-08 00:15:00,33.2,23.8,30.26,East,80,5.0,11.0,68,0.00,,---,0.00,VWS V14.01,2013-02-08 05:15:00,
2013-02-08 00:17:00,32.6,22.9,30.29,East,94,8.0,8.0,67,0.00,,---,0.00,VWS V14.01,2013-02-08 05:17:00,
2013-02-08 00:22:00,32.7,23.0,30.29,ENE,67,5.0,12.0,67,0.00,,---,0.00,VWS V14.01,2013-02-08 05:22:00,
2013-02-08 00:27:00,32.7,23.0,30.29,NE,37,3.0,12.0,67,0.00,,---,0.00,VWS V14.01,2013-02-08 05:27:00,
2013-02-08 00:30:00,33.2,24.1,30.26,ENE,76,5.0,13.0,69,0.00,,---,0.00,VWS V14.01,2013-02-08 05:30:00,
2013-02-08 00:32:00,32.7,23.0,30.28,East,90,6.0,7.0,67,0.00,,---,0.00,VWS V14.01,2013-02-08 05:32:00,
2013-02-08 00:37:00,32.8,23.1,30.28,ENE,73,4.0,9.0,67,0.00,,---,0.00,VWS V14.01,2013-02-08 05:37:00,
2013-02-08 00:42:00,32.8,23.1,30.28,ENE,62,7.0,9.0,67,0.00,,---,0.00,VWS V14.01,2013-02-08 05:42:00,
2013-02-08 00:45:00,33.1,24.0,30.25,East,79,8.0,11.0,69,0.00,,---,0.00,VWS V14.01,2013-02-08 05:45:00,
2013-02-08 00:47:00,32.9,23.5,30.27,East,79,7.0,7.0,68,0.00,,---,0.00,VWS V14.01,2013-02-08 05:47:00,
2013-02-08 00:52:00,33.0,23.6,30.27,ENE,76,7.0,10.0,68,0.00,,---,0.00,VWS V14.01,2013-02-08 05:52:00,
2013-02-08 00:57:00,33.0,23.6,30.27,NE,54,5.0,11.0,68,0.00,,---,0.00,VWS V14.01,2013-02-08 05:57:00,
2013-02-08 01:00:00,33.2,24.1,30.24,ENE,75,8.0,15.0,69,0.00,,---,0.00,VWS V14.01,2013-02-08 06:00:00,
2013-02-08 01:03:00,33.0,23.6,30.27,ENE,61,4.0,9.0,68,0.00,,---,0.00,VWS V14.01,2013-02-08 06:03:00,
2013-02-08 01:08:00,33.1,23.7,30.27,NE,51,6.0,11.0,68,0.00,,---,0.00,VWS V14.01,2013-02-08 06:08:00,
2013-02-08 01:13:00,33.1,23.7,30.26,East,87,3.0,11.0,68,0.00,,---,0.00,VWS V14.01,2013-02-08 06:13:00,
2013-02-08 01:15:00,33.3,24.6,30.23,East,86,2.0,11.0,70,0.00,,---,0.00,VWS V14.01,2013-02-08 06:15:00,
2013-02-08 01:18:00,33.2,23.8,30.26,ENE,66,5.0,9.0,68,0.00,,---,0.00,VWS V14.01,2013-02-08 06:18:00,
2013-02-08 01:23:00,33.1,23.7,30.26,ENE,65,8.0,13.0,68,0.00,,---,0.00,VWS V14.01,2013-02-08 06:23:00,
2013-02-08 01:28:00,33.1,24.0,30.26,East,86,5.0,13.0,69,0.00,,---,0.00,VWS V14.01,2013-02-08 06:28:00,
2013-02-08 01:30:00,33.4,24.7,30.23,East,80,3.0,13.0,70,0.00,,---,0.00,VWS V14.01,2013-02-08 06:30:00,
2013-02-08 01:33:00,33.2,24.1,30.26,ENE,60,5.0,9.0,69,0.00,,---,0.00,VWS V14.01,2013-02-08 06:33:00,
2013-02-08 01:38:00,33.3,24.2,30.25,ENE,72,4.0,9.0,69,0.00,,---,0.00,VWS V14.01,2013-02-08 06:38:00,
2013-02-08 01:43:00,33.2,24.1,30.25,ENE,65,9.0,11.0,69,0.00,,---,0.00,VWS V14.01,2013-02-08 06:43:00,
2013-02-08 01:45:00,33.5,24.8,30.22,ENE,74,4.0,10.0,70,0.00,,---,0.00,VWS V14.01,2013-02-08 06:45:00,
2013-02-08 01:48:00,33.2,24.1,30.24,ENE,77,8.0,14.0,69,0.00,,---,0.00,VWS V14.01,2013-02-08 06:48:00,
2013-02-08 01:53:00,33.2,24.1,30.24,ENE,63,12.0,14.0,69,0.00,,---,0.00,VWS V14.01,2013-02-08 06:53:00,
2013-02-08 01:58:00,33.2,24.1,30.24,ENE,74,7.0,15.0,69,0.00,,---,0.00,VWS V14.01,2013-02-08 06:58:00,
2013-02-08 02:00:00,33.6,25.2,30.21,ENE,71,5.0,11.0,71,0.00,,---,0.00,VWS V14.01,2013-02-08 07:00:00,
2013-02-08 02:03:00,33.2,24.1,30.24,ENE,68,4.0,8.0,69,0.00,,---,0.00,VWS V14.01,2013-02-08 07:03:00,
2013-02-08 02:08:00,33.3,24.2,30.23,NE,56,6.0,11.0,69,0.00,,---,0.00,VWS V14.01,2013-02-08 07:08:00,
2013-02-08 02:13:00,33.3,24.6,30.23,East,87,5.0,11.0,70,0.00,,---,0.00,VWS V14.01,2013-02-08 07:13:00,
2013-02-08 02:15:00,33.9,25.8,30.20,East,93,5.0,11.0,72,0.00,,---,0.00,VWS V14.01,2013-02-08 07:15:00,
2013-02-08 02:18:00,33.4,24.7,30.23,East,98,7.0,13.0,70,0.00,,---,0.00,VWS V14.01,2013-02-08 07:18:00,
2013-02-08 02:23:00,33.3,24.6,30.23,ENE,65,8.0,13.0,70,0.00,,---,0.00,VWS V14.01,2013-02-08 07:23:00,
2013-02-08 02:28:00,33.4,24.7,30.23,ENE,77,8.0,13.0,70,0.00,,---,0.00,VWS V14.01,2013-02-08 07:28:00,
2013-02-08 02:30:00,34.6,26.9,30.19,ENE,77,8.0,13.0,73,0.00,,---,0.00,VWS V14.01,2013-02-08 07:30:00,
2013-02-08 02:33:00,33.4,24.7,30.22,ENE,59,8.0,8.0,70,0.00,,---,0.00,VWS V14.01,2013-02-08 07:33:00,
2013-02-08 02:39:00,33.5,24.8,30.22,East,88,2.0,10.0,70,0.00,,---,0.00,VWS V14.01,2013-02-08 07:39:00,
2013-02-08 02:44:00,33.5,24.8,30.22,NE,55,3.0,10.0,70,0.00,,---,0.00,VWS V14.01,2013-02-08 07:44:00,
2013-02-08 02:45:00,35.2,27.4,30.18,ESE,121,5.0,21.0,73,0.00,,---,0.00,VWS V14.01,2013-02-08 07:45:00,
2013-02-08 02:49:00,33.6,24.9,30.21,East,90,5.0,9.0,70,0.00,,---,0.00,VWS V14.01,2013-02-08 07:49:00,
2013-02-08 02:54:00,33.5,25.1,30.21,East,86,8.0,10.0,71,0.00,,---,0.00,VWS V14.01,2013-02-08 07:54:00,
2013-02-08 02:59:00,33.6,25.2,30.21,ENE,59,7.0,11.0,71,0.00,,---,0.00,VWS V14.01,2013-02-08 07:59:00,
2013-02-08 03:00:00,35.2,27.4,30.17,East,90,17.0,20.0,73,0.00,,---,0.00,VWS V14.01,2013-02-08 08:00:00,
2013-02-08 03:04:00,33.6,25.2,30.21,ENE,70,4.0,10.0,71,0.00,,---,0.00,VWS V14.01,2013-02-08 08:04:00,
2013-02-08 03:09:00,33.7,25.3,30.20,East,82,6.0,11.0,71,0.00,,---,0.00,VWS V14.01,2013-02-08 08:09:00,
2013-02-08 03:14:00,33.9,25.8,30.20,ENE,69,8.0,11.0,72,0.00,,---,0.00,VWS V14.01,2013-02-08 08:14:00,
2013-02-08 03:15:00,35.2,27.4,30.17,East,92,6.0,18.0,73,0.00,,---,0.00,VWS V14.01,2013-02-08 08:15:00,
2013-02-08 03:19:00,34.0,25.9,30.19,ENE,61,7.0,9.0,72,0.00,,---,0.00,VWS V14.01,2013-02-08 08:19:00,
2013-02-08 03:24:00,34.4,26.3,30.19,ENE,78,5.0,13.0,72,0.00,,---,0.00,VWS V14.01,2013-02-08 08:24:00,
2013-02-08 03:29:00,34.4,26.7,30.19,East,88,10.0,13.0,73,0.00,,---,0.00,VWS V14.01,2013-02-08 08:29:00,
2013-02-08 03:30:00,35.1,27.7,30.17,East,82,6.0,21.0,74,0.00,,---,0.00,VWS V14.01,2013-02-08 08:30:00,
2013-02-08 03:34:00,34.8,27.0,30.18,East,80,7.0,12.0,73,0.00,,---,0.00,VWS V14.01,2013-02-08 08:34:00,
2013-02-08 03:39:00,35.0,27.2,30.18,East,79,8.0,21.0,73,0.00,,---,0.00,VWS V14.01,2013-02-08 08:39:00,
2013-02-08 03:44:00,35.2,27.4,30.18,NE,55,9.0,21.0,73,0.00,,---,0.00,VWS V14.01,2013-02-08 08:44:00,
2013-02-08 03:45:00,35.1,27.7,30.16,ENE,74,7.0,21.0,74,0.00,,---,0.00,VWS V14.01,2013-02-08 08:45:00,
2013-02-08 03:49:00,35.2,27.4,30.18,East,86,9.0,16.0,73,0.00,,---,0.00,VWS V14.01,2013-02-08 08:49:00,
2013-02-08 03:54:00,35.2,27.4,30.17,East,98,10.0,16.0,73,0.00,,---,0.00,VWS V14.01,2013-02-08 08:54:00,
2013-02-08 03:59:00,35.2,27.4,30.17,East,99,10.0,20.0,73,0.00,,---,0.00,VWS V14.01,2013-02-08 08:59:00,
2013-02-08 04:00:00,35.0,27.2,30.15,East,84,9.0,16.0,73,0.00,,---,0.00,VWS V14.01,2013-02-08 09:00:00,
2013-02-08 04:05:00,35.2,27.4,30.17,East,90,14.0,17.0,73,0.00,,---,0.00,VWS V14.01,2013-02-08 09:05:00,
2013-02-08 04:10:00,35.2,27.4,30.17,ESE,111,9.0,18.0,73,0.00,,---,0.00,VWS V14.01,2013-02-08 09:10:00,
2013-02-08 04:15:00,35.2,27.4,30.17,ENE,67,7.0,18.0,73,0.00,,---,0.00,VWS V14.01,2013-02-08 09:15:00,
2013-02-08 04:20:00,35.1,27.3,30.17,ESE,110,11.0,17.0,73,0.00,,---,0.00,VWS V14.01,2013-02-08 09:20:00,
2013-02-08 04:25:00,35.1,27.7,30.17,East,93,6.0,17.0,74,0.00,,---,0.00,VWS V14.01,2013-02-08 09:25:00,
2013-02-08 04:30:00,35.1,27.7,30.17,East,90,13.0,21.0,74,0.00,,---,0.00,VWS V14.01,2013-02-08 09:30:00,
2013-02-08 04:35:00,35.1,27.7,30.17,ENE,74,10.0,21.0,74,0.00,,---,0.00,VWS V14.01,2013-02-08 09:35:00,
2013-02-08 04:40:00,35.1,27.7,30.16,ENE,60,12.0,21.0,74,0.00,,---,0.00,VWS V14.01,2013-02-08 09:40:00,
2013-02-08 04:45:00,35.1,27.3,30.16,East,80,10.0,21.0,73,0.00,,---,0.00,VWS V14.01,2013-02-08 09:45:00,
2013-02-08 04:50:00,35.1,27.3,30.16,ESE,104,8.0,15.0,73,0.00,,---,0.00,VWS V14.01,2013-02-08 09:50:00,
2013-02-08 04:55:00,35.0,27.2,30.16,ENE,73,11.0,16.0,73,0.00,,---,0.00,VWS V14.01,2013-02-08 09:55:00,
2013-02-08 05:00:00,35.0,27.2,30.15,ENE,78,12.0,16.0,73,0.00,,---,0.00,VWS V14.01,2013-02-08 10:00:00,
2013-02-08 05:05:00,34.9,27.1,30.15,ENE,68,9.0,18.0,73,0.00,,---,0.00,VWS V14.01,2013-02-08 10:05:00,
2013-02-08 05:10:00,34.8,27.0,30.15,NE,40,5.0,18.0,73,0.00,,---,0.00,VWS V14.01,2013-02-08 10:10:00,
2013-02-08 05:15:00,34.4,26.3,30.15,NNE,19,11.0,18.0,72,0.00,,---,0.00,VWS V14.01,2013-02-08 10:15:00,
2013-02-08 05:20:00,33.7,25.6,30.15,NNE,27,6.0,11.0,72,0.00,,---,0.00,VWS V14.01,2013-02-08 10:20:00,
2013-02-08 05:25:00,33.3,25.3,30.15,NE,52,4.0,11.0,72,0.00,,---,0.00,VWS V14.01,2013-02-08 10:25:00,
2013-02-08 05:30:00,33.1,25.4,30.14,NE,54,9.0,11.0,73,0.00,,---,0.00,VWS V14.01,2013-02-08 10:30:00,
2013-02-08 05:35:00,32.9,25.2,30.14,NE,53,5.0,14.0,73,0.00,,---,0.00,VWS V14.01,2013-02-08 10:35:00,
2013-02-08 05:40:00,32.8,25.1,30.14,NNE,27,4.0,14.0,73,0.00,,---,0.00,VWS V14.01,2013-02-08 10:40:00,
2013-02-08 05:45:00,32.1,26.6,30.10,NE,56,4.0,13.0,80,0.00,,---,0.00,VWS V14.01,2013-02-08 10:45:00,
2013-02-08 05:46:00,32.7,25.0,30.14,ENE,78,5.0,14.0,73,0.00,,---,0.00,VWS V14.01,2013-02-08 10:46:00,
2013-02-08 05:51:00,32.6,25.2,30.13,ENE,64,11.0,15.0,74,0.00,,---,0.00,VWS V14.01,2013-02-08 10:51:00,
2013-02-08 05:56:00,32.6,25.2,30.13,NE,53,5.0,15.0,74,0.00,,---,0.00,VWS V14.01,2013-02-08 10:56:00,
2013-02-08 06:00:00,31.7,26.5,30.09,NE,46,5.0,11.0,81,0.00,,---,0.00,VWS V14.01,2013-02-08 11:00:00,
2013-02-08 06:01:00,32.5,25.1,30.12,ENE,64,8.0,15.0,74,0.00,,---,0.00,VWS V14.01,2013-02-08 11:01:00,
2013-02-08 06:06:00,32.4,25.0,30.12,NE,55,4.0,9.0,74,0.00,,---,0.00,VWS V14.01,2013-02-08 11:06:00,
2013-02-08 06:11:00,32.3,25.3,30.12,NE,53,6.0,11.0,75,0.00,,---,0.00,VWS V14.01,2013-02-08 11:11:00,
2013-02-08 06:15:00,31.6,26.8,30.09,ENE,58,3.0,13.0,82,0.00,,---,0.00,VWS V14.01,2013-02-08 11:15:00,
2013-02-08 06:16:00,32.1,25.4,30.12,ENE,74,4.0,7.0,76,0.00,,---,0.00,VWS V14.01,2013-02-08 11:16:00,
2013-02-08 06:21:00,32.0,25.6,30.11,East,101,8.0,10.0,77,0.00,,---,0.00,VWS V14.01,2013-02-08 11:21:00,
2013-02-08 06:26:00,32.0,25.9,30.11,East,93,7.0,13.0,78,0.00,,---,0.00,VWS V14.01,2013-02-08 11:26:00,
2013-02-08 06:30:00,31.5,26.9,30.09,NE,53,4.0,11.0,83,0.00,,---,0.00,VWS V14.01,2013-02-08 11:30:00,
2013-02-08 06:31:00,32.1,26.3,30.10,ENE,60,8.0,11.0,79,0.00,,---,0.00,VWS V14.01,2013-02-08 11:31:00,
2013-02-08 06:36:00,32.1,26.3,30.10,NE,54,5.0,13.0,79,0.00,,---,0.00,VWS V14.01,2013-02-08 11:36:00,
2013-02-08 06:41:00,32.2,26.7,30.10,NE,48,4.0,13.0,80,0.00,,---,0.00,VWS V14.01,2013-02-08 11:41:00,
2013-02-08 06:45:00,31.6,27.3,30.08,NE,51,7.0,13.0,84,0.00,,---,0.00,VWS V14.01,2013-02-08 11:45:00,
2013-02-08 06:46:00,32.0,26.5,30.10,NE,51,4.0,7.0,80,0.00,,---,0.00,VWS V14.01,2013-02-08 11:46:00,
2013-02-08 06:51:00,31.9,26.7,30.10,ENE,67,4.0,11.0,81,0.00,,---,0.00,VWS V14.01,2013-02-08 11:51:00,
2013-02-08 06:56:00,31.8,26.6,30.09,ENE,64,8.0,11.0,81,0.00,,---,0.00,VWS V14.01,2013-02-08 11:56:00,
2013-02-08 07:00:00,32.0,28.0,30.08,ENE,58,11.0,15.0,85,0.00,,---,0.00,VWS V14.01,2013-02-08 12:00:00,
2013-02-08 07:01:00,31.7,26.5,30.09,NE,44,4.0,10.0,81,0.00,,---,0.00,VWS V14.01,2013-02-08 12:01:00,
2013-02-08 07:06:00,31.6,26.8,30.09,ENE,73,3.0,12.0,82,0.00,,---,0.00,VWS V14.01,2013-02-08 12:06:00,
2013-02-08 07:11:00,31.6,26.8,30.09,ESE,104,4.0,13.0,82,0.00,,---,0.00,VWS V14.01,2013-02-08 12:11:00,
2013-02-08 07:15:00,32.2,28.2,30.07,NE,55,2.0,12.0,85,0.00,,---,0.00,VWS V14.01,2013-02-08 12:15:00,
2013-02-08 07:17:00,31.5,26.6,30.09,East,80,5.0,6.0,82,0.00,,---,0.00,VWS V14.01,2013-02-08 12:17:00,
2013-02-08 07:22:00,31.5,26.6,30.09,ENE,76,5.0,10.0,82,0.00,,---,0.00,VWS V14.01,2013-02-08 12:22:00,
2013-02-08 07:27:00,31.5,26.9,30.09,NE,51,3.0,11.0,83,0.00,,---,0.00,VWS V14.01,2013-02-08 12:27:00,
2013-02-08 07:30:00,32.4,28.4,30.06,North,5,4.0,11.0,85,0.00,,---,0.00,VWS V14.01,2013-02-08 12:30:00,
2013-02-08 07:32:00,31.5,26.9,30.09,ENE,67,5.0,5.0,83,0.00,,---,0.00,VWS V14.01,2013-02-08 12:32:00,
2013-02-08 07:37:00,31.5,26.9,30.08,ENE,57,4.0,12.0,83,0.00,,---,0.00,VWS V14.01,2013-02-08 12:37:00,
2013-02-08 07:42:00,31.5,27.2,30.08,ENE,69,9.0,13.0,84,0.00,,---,0.00,VWS V14.01,2013-02-08 12:42:00,
2013-02-08 07:45:00,32.3,28.6,30.05,ENE,59,5.0,15.0,86,0.00,,---,0.00,VWS V14.01,2013-02-08 12:45:00,
2013-02-08 07:54:00,31.8,27.5,30.08,NE,53,8.0,12.0,84,0.00,,---,0.00,VWS V14.01,2013-02-08 12:54:00,
2013-02-08 07:59:00,31.9,27.6,30.08,ENE,70,2.0,15.0,84,0.00,,---,0.00,VWS V14.01,2013-02-08 12:59:00,
2013-02-08 08:00:00,32.3,28.6,30.04,ENE,76,3.0,14.0,86,0.00,,---,0.00,VWS V14.01,2013-02-08 13:00:00,
2013-02-08 08:05:00,32.0,28.0,30.07,ESE,105,7.0,12.0,85,0.00,,---,0.00,VWS V14.01,2013-02-08 13:05:00,
2013-02-08 08:10:00,32.1,28.1,30.07,NNE,22,8.0,12.0,85,0.00,,---,0.00,VWS V14.01,2013-02-08 13:10:00,
2013-02-08 08:15:00,32.2,28.2,30.07,ENE,63,5.0,12.0,85,0.00,,---,0.00,VWS V14.01,2013-02-08 13:15:00,
2013-02-08 08:20:00,32.3,28.3,30.07,ENE,67,3.0,10.0,85,0.00,,---,0.00,VWS V14.01,2013-02-08 13:20:00,
2013-02-08 08:25:00,32.3,28.3,30.06,NE,53,6.0,10.0,85,0.00,,---,0.00,VWS V14.01,2013-02-08 13:25:00,
2013-02-08 08:30:00,32.3,28.3,30.06,ENE,71,8.0,11.0,85,0.00,,---,0.00,VWS V14.01,2013-02-08 13:30:00,
2013-02-08 08:35:00,32.3,28.6,30.06,ENE,57,8.0,12.0,86,0.00,,---,0.00,VWS V14.01,2013-02-08 13:35:00,
2013-02-08 08:40:00,32.3,28.6,30.05,NNE,28,10.0,15.0,86,0.00,,---,0.00,VWS V14.01,2013-02-08 13:40:00,
2013-02-08 08:45:00,32.3,28.6,30.05,NE,53,9.0,15.0,86,0.00,,---,0.00,VWS V14.01,2013-02-08 13:45:00,
2013-02-08 08:50:00,32.3,28.6,30.05,ENE,69,8.0,11.0,86,0.00,,---,0.00,VWS V14.01,2013-02-08 13:50:00,
2013-02-08 08:55:00,32.3,28.6,30.04,ENE,76,9.0,11.0,86,0.00,,---,0.00,VWS V14.01,2013-02-08 13:55:00,
2013-02-08 09:00:00,32.3,28.6,30.04,East,80,3.0,14.0,86,0.00,,---,0.00,VWS V14.01,2013-02-08 14:00:00,
2013-02-08 09:05:00,32.3,28.6,30.03,ENE,59,5.0,12.0,86,0.00,,---,0.00,VWS V14.01,2013-02-08 14:05:00,
2013-02-08 09:10:00,32.4,28.7,30.03,NNE,28,7.0,12.0,86,0.00,,---,0.00,VWS V14.01,2013-02-08 14:10:00,
2013-02-08 09:15:00,32.5,29.1,30.02,ENE,59,7.0,15.0,87,0.00,,---,0.00,VWS V14.01,2013-02-08 14:15:00,
2013-02-08 09:20:00,32.5,29.1,30.02,ENE,62,7.0,13.0,87,0.00,,---,0.00,VWS V14.01,2013-02-08 14:20:00,
2013-02-08 09:26:00,32.6,29.2,30.01,East,84,8.0,15.0,87,0.00,,---,0.00,VWS V14.01,2013-02-08 14:26:00,
2013-02-08 09:30:00,33.2,30.0,29.97,ENE,66,9.0,15.0,88,0.06,,---,0.06,VWS V14.01,2013-02-08 14:30:00,
2013-02-08 09:31:00,32.6,29.2,30.01,NE,41,7.0,15.0,87,0.01,,---,0.01,VWS V14.01,2013-02-08 14:31:00,
2013-02-08 09:36:00,32.6,29.2,30.00,NE,51,6.0,14.0,87,0.01,,---,0.01,VWS V14.01,2013-02-08 14:36:00,
2013-02-08 09:41:00,32.6,29.2,30.00,ENE,61,8.0,14.0,87,0.01,,---,0.01,VWS V14.01,2013-02-08 14:41:00,
2013-02-08 09:45:00,33.3,30.1,29.95,NE,41,3.0,13.0,88,0.06,,---,0.07,VWS V14.01,2013-02-08 14:45:00,
2013-02-08 09:46:00,32.8,29.4,30.00,NNE,23,5.0,14.0,87,0.02,,---,0.02,VWS V14.01,2013-02-08 14:46:00,
2013-02-08 09:51:00,32.7,29.3,30.00,ENE,77,3.0,13.0,87,0.02,,---,0.02,VWS V14.01,2013-02-08 14:51:00,
2013-02-08 09:56:00,32.8,29.4,29.99,NE,43,4.0,15.0,87,0.02,,---,0.02,VWS V14.01,2013-02-08 14:56:00,
2013-02-08 10:00:00,33.4,30.2,29.94,ENE,62,5.0,16.0,88,0.07,,---,0.09,VWS V14.01,2013-02-08 15:00:00,
2013-02-08 10:01:00,32.8,29.4,29.99,NE,54,6.0,6.0,87,0.03,,---,0.03,VWS V14.01,2013-02-08 15:01:00,
2013-02-08 10:06:00,32.9,29.7,29.98,ENE,67,5.0,15.0,88,0.03,,---,0.03,VWS V14.01,2013-02-08 15:06:00,
2013-02-08 10:11:00,33.0,29.8,29.98,East,82,11.0,16.0,88,0.04,,---,0.04,VWS V14.01,2013-02-08 15:11:00,
2013-02-08 10:15:00,33.4,30.2,29.92,NE,48,4.0,16.0,88,0.07,,---,0.10,VWS V14.01,2013-02-08 15:15:00,
2013-02-08 10:16:00,33.0,29.8,29.98,ENE,58,8.0,11.0,88,0.04,,---,0.04,VWS V14.01,2013-02-08 15:16:00,
2013-02-08 10:21:00,33.1,29.9,29.97,NE,54,7.0,13.0,88,0.05,,---,0.05,VWS V14.01,2013-02-08 15:21:00,
2013-02-08 10:26:00,33.1,29.9,29.97,ENE,61,2.0,15.0,88,0.05,,---,0.05,VWS V14.01,2013-02-08 15:26:00,
2013-02-08 10:30:00,33.6,30.4,29.91,NE,51,15.0,18.0,88,0.09,,---,0.13,VWS V14.01,2013-02-08 15:30:00,
2013-02-08 10:31:00,33.2,30.0,29.97,East,92,6.0,11.0,88,0.05,,---,0.06,VWS V14.01,2013-02-08 15:31:00,
2013-02-08 10:37:00,33.2,30.0,29.96,ENE,71,5.0,11.0,88,0.05,,---,0.06,VWS V14.01,2013-02-08 15:37:00,
2013-02-08 10:42:00,33.2,30.0,29.96,NE,48,7.0,13.0,88,0.06,,---,0.07,VWS V14.01,2013-02-08 15:42:00,
2013-02-08 10:45:00,33.7,30.5,29.90,NNE,32,7.0,17.0,88,0.09,,---,0.15,VWS V14.01,2013-02-08 15:45:00,
2013-02-08 10:47:00,33.3,30.1,29.95,NE,55,3.0,4.0,88,0.05,,---,0.07,VWS V14.01,2013-02-08 15:47:00,
2013-02-08 10:52:00,33.4,30.2,29.95,ENE,64,10.0,14.0,88,0.06,,---,0.08,VWS V14.01,2013-02-08 15:52:00,
2013-02-08 10:57:00,33.4,30.2,29.94,ENE,67,4.0,16.0,88,0.06,,---,0.08,VWS V14.01,2013-02-08 15:57:00,
2013-02-08 11:00:00,33.7,30.5,29.88,NE,53,14.0,21.0,88,0.11,,---,0.18,VWS V14.01,2013-02-08 16:00:00,
2013-02-08 11:02:00,33.4,30.2,29.94,NE,49,10.0,12.0,88,0.06,,---,0.09,VWS V14.01,2013-02-08 16:02:00,
2013-02-08 11:07:00,33.3,30.1,29.93,NE,44,7.0,16.0,88,0.06,,---,0.09,VWS V14.01,2013-02-08 16:07:00,
2013-02-08 11:12:00,33.4,30.2,29.93,NNE,24,9.0,16.0,88,0.07,,---,0.10,VWS V14.01,2013-02-08 16:12:00,
2013-02-08 11:15:00,33.6,30.4,29.86,ENE,65,10.0,17.0,88,0.11,,---,0.20,VWS V14.01,2013-02-08 16:15:00,
2013-02-08 11:17:00,33.4,30.2,29.92,ENE,57,7.0,10.0,88,0.07,,---,0.11,VWS V14.01,2013-02-08 16:17:00,
2013-02-08 11:22:00,33.5,30.3,29.92,ENE,62,7.0,14.0,88,0.07,,---,0.11,VWS V14.01,2013-02-08 16:22:00,
2013-02-08 11:28:00,33.5,30.3,29.92,ENE,68,8.0,18.0,88,0.08,,---,0.12,VWS V14.01,2013-02-08 16:28:00,
2013-02-08 11:30:00,33.6,30.4,29.84,ENE,66,7.0,21.0,88,0.13,,---,0.23,VWS V14.01,2013-02-08 16:30:00,
2013-02-08 11:33:00,33.6,30.4,29.91,ENE,64,7.0,15.0,88,0.07,,---,0.13,VWS V14.01,2013-02-08 16:33:00,
2013-02-08 11:38:00,33.7,30.5,29.90,NNE,19,3.0,16.0,88,0.08,,---,0.14,VWS V14.01,2013-02-08 16:38:00,
2013-02-08 11:43:00,33.7,30.5,29.90,ENE,61,7.0,17.0,88,0.08,,---,0.14,VWS V14.01,2013-02-08 16:43:00,
2013-02-08 11:45:00,33.5,30.3,29.83,NE,38,8.0,23.0,88,0.14,,---,0.27,VWS V14.01,2013-02-08 16:45:00,
2013-02-08 11:48:00,33.7,30.5,29.89,ENE,61,7.0,14.0,88,0.08,,---,0.15,VWS V14.01,2013-02-08 16:48:00,
2013-02-08 11:53:00,33.7,30.5,29.88,East,82,5.0,16.0,88,0.09,,---,0.16,VWS V14.01,2013-02-08 16:53:00,
2013-02-08 11:58:00,33.7,30.5,29.88,ENE,67,10.0,16.0,88,0.10,,---,0.17,VWS V14.01,2013-02-08 16:58:00,
2013-02-08 12:00:00,33.2,29.8,29.81,NE,51,10.0,22.0,87,0.16,,---,0.31,VWS V14.01,2013-02-08 17:00:00,
2013-02-08 12:03:00,33.6,30.4,29.87,NE,42,5.0,13.0,88,0.09,,---,0.18,VWS V14.01,2013-02-08 17:03:00,
2013-02-08 12:09:00,33.7,30.5,29.87,ENE,58,9.0,17.0,88,0.10,,---,0.19,VWS V14.01,2013-02-08 17:09:00,
2013-02-08 12:14:00,33.6,30.4,29.86,ESE,109,7.0,17.0,88,0.11,,---,0.20,VWS V14.01,2013-02-08 17:14:00,
2013-02-08 12:15:00,33.0,29.6,29.79,ENE,72,11.0,21.0,87,0.17,,---,0.35,VWS V14.01,2013-02-08 17:15:00,
2013-02-08 12:19:00,33.6,30.4,29.85,ENE,64,9.0,14.0,88,0.11,,---,0.21,VWS V14.01,2013-02-08 17:19:00,
2013-02-08 12:24:00,33.5,30.3,29.85,NNE,19,4.0,16.0,88,0.11,,---,0.21,VWS V14.01,2013-02-08 17:24:00,
2013-02-08 12:29:00,33.6,30.4,29.84,NNE,25,8.0,21.0,88,0.12,,---,0.22,VWS V14.01,2013-02-08 17:29:00,
2013-02-08 12:30:00,32.8,29.4,29.77,ENE,65,19.0,24.0,87,0.17,,---,0.37,VWS V14.01,2013-02-08 17:30:00,
2013-02-08 12:38:00,33.5,30.3,29.83,East,89,5.0,19.0,88,0.11,,---,0.24,VWS V14.01,2013-02-08 17:38:00,
2013-02-08 12:43:00,33.5,30.3,29.83,NE,42,10.0,19.0,88,0.13,,---,0.26,VWS V14.01,2013-02-08 17:43:00,
2013-02-08 12:45:00,32.7,29.3,29.76,NNE,12,7.0,23.0,87,0.16,,---,0.39,VWS V14.01,2013-02-08 17:45:00,
2013-02-08 12:48:00,33.4,30.2,29.82,ENE,68,7.0,19.0,88,0.12,,---,0.27,VWS V14.01,2013-02-08 17:48:00,
2013-02-08 12:53:00,33.3,30.1,29.82,NE,53,16.0,22.0,88,0.14,,---,0.29,VWS V14.01,2013-02-08 17:53:00,
2013-02-08 12:58:00,33.2,29.8,29.81,NE,39,13.0,22.0,87,0.16,,---,0.31,VWS V14.01,2013-02-08 17:58:00,
2013-02-08 13:00:00,32.8,29.4,29.74,East,96,15.0,28.0,87,0.15,,---,0.42,VWS V14.01,2013-02-08 18:00:00,
2013-02-08 13:04:00,33.1,29.7,29.80,ENE,76,11.0,20.0,87,0.14,,---,0.32,VWS V14.01,2013-02-08 18:04:00,
2013-02-08 13:09:00,33.1,29.7,29.80,NE,49,12.0,20.0,87,0.16,,---,0.34,VWS V14.01,2013-02-08 18:09:00,
2013-02-08 13:14:00,33.1,29.7,29.79,NNE,33,11.0,21.0,87,0.17,,---,0.35,VWS V14.01,2013-02-08 18:14:00,
2013-02-08 13:15:00,32.8,29.4,29.73,NE,47,3.0,23.0,87,0.13,,---,0.44,VWS V14.01,2013-02-08 18:15:00,
2013-02-08 13:19:00,33.0,29.6,29.79,NNE,32,8.0,24.0,87,0.15,,---,0.35,VWS V14.01,2013-02-08 18:19:00,
2013-02-08 13:24:00,32.9,29.5,29.79,East,94,5.0,24.0,87,0.16,,---,0.36,VWS V14.01,2013-02-08 18:24:00,
2013-02-08 13:30:00,32.8,29.4,29.78,NE,42,10.0,24.0,87,0.17,,---,0.37,VWS V14.01,2013-02-08 18:30:00,
2013-02-08 13:35:00,32.8,29.4,29.77,NE,46,7.0,20.0,87,0.15,,---,0.38,VWS V14.01,2013-02-08 18:35:00,
2013-02-08 13:40:00,32.7,29.3,29.76,NE,34,11.0,23.0,87,0.16,,---,0.39,VWS V14.01,2013-02-08 18:40:00,
2013-02-08 13:45:00,32.7,29.3,29.76,North,5,7.0,23.0,87,0.16,,---,0.39,VWS V14.01,2013-02-08 18:45:00,
2013-02-08 13:50:00,32.7,29.3,29.75,ENE,76,17.0,21.0,87,0.13,,---,0.40,VWS V14.01,2013-02-08 18:50:00,
2013-02-08 13:56:00,32.7,29.3,29.75,ENE,72,7.0,22.0,87,0.14,,---,0.41,VWS V14.01,2013-02-08 18:56:00,
2013-02-08 14:00:00,32.4,29.0,29.71,NNE,31,13.0,22.0,87,0.08,,---,0.47,VWS V14.01,2013-02-08 19:00:00,
2013-02-08 14:01:00,32.8,29.4,29.74,East,96,15.0,28.0,87,0.15,,---,0.42,VWS V14.01,2013-02-08 19:01:00,
2013-02-08 14:06:00,32.8,29.4,29.74,NNE,20,7.0,20.0,87,0.12,,---,0.43,VWS V14.01,2013-02-08 19:06:00,
2013-02-08 14:11:00,32.8,29.4,29.74,NNE,19,13.0,23.0,87,0.13,,---,0.44,VWS V14.01,2013-02-08 19:11:00,
2013-02-08 14:15:00,32.4,29.0,29.70,ENE,67,11.0,20.0,87,0.06,,---,0.48,VWS V14.01,2013-02-08 19:15:00,
2013-02-08 14:16:00,32.9,29.5,29.73,NNE,30,11.0,19.0,87,0.09,,---,0.44,VWS V14.01,2013-02-08 19:16:00,
2013-02-08 14:21:00,32.9,29.5,29.73,NE,49,11.0,22.0,87,0.10,,---,0.45,VWS V14.01,2013-02-08 19:21:00,
2013-02-08 14:26:00,32.8,29.4,29.73,NE,55,18.0,22.0,87,0.11,,---,0.46,VWS V14.01,2013-02-08 19:26:00,
2013-02-08 14:30:00,32.3,28.9,29.70,North,5,5.0,21.0,87,0.05,,---,0.49,VWS V14.01,2013-02-08 19:30:00,
2013-02-08 14:31:00,32.8,29.4,29.72,NE,36,14.0,18.0,87,0.09,,---,0.46,VWS V14.01,2013-02-08 19:31:00,
2013-02-08 14:36:00,32.8,29.4,29.72,North,5,6.0,21.0,87,0.09,,---,0.46,VWS V14.01,2013-02-08 19:36:00,
2013-02-08 14:42:00,32.6,29.2,29.72,ENE,71,15.0,21.0,87,0.10,,---,0.47,VWS V14.01,2013-02-08 19:42:00,
2013-02-08 14:45:00,32.1,28.7,29.70,NNE,24,6.0,25.0,87,0.03,,---,0.49,VWS V14.01,2013-02-08 19:45:00,
2013-02-08 14:47:00,32.5,29.1,29.71,ENE,67,8.0,13.0,87,0.08,,---,0.47,VWS V14.01,2013-02-08 19:47:00,
2013-02-08 14:52:00,32.5,29.1,29.71,ENE,59,14.0,19.0,87,0.08,,---,0.47,VWS V14.01,2013-02-08 19:52:00,
2013-02-08 14:57:00,32.4,29.0,29.71,NE,52,4.0,22.0,87,0.08,,---,0.47,VWS V14.01,2013-02-08 19:57:00,
2013-02-08 15:00:00,32.1,29.0,29.69,North,9,3.0,18.0,88,0.03,,---,0.50,VWS V14.01,2013-02-08 20:00:00,
2013-02-08 15:02:00,32.4,29.0,29.71,East,82,14.0,14.0,87,0.05,,---,0.47,VWS V14.01,2013-02-08 20:02:00,
2013-02-08 15:07:00,32.5,29.1,29.71,NE,53,13.0,20.0,87,0.06,,---,0.48,VWS V14.01,2013-02-08 20:07:00,
2013-02-08 15:12:00,32.4,29.0,29.70,NE,49,9.0,20.0,87,0.06,,---,0.48,VWS V14.01,2013-02-08 20:12:00,
2013-02-08 15:15:00,32.0,28.9,29.69,NE,51,9.0,18.0,88,0.03,,---,0.50,VWS V14.01,2013-02-08 20:15:00,
2013-02-08 15:17:00,32.4,29.0,29.70,NNE,15,19.0,21.0,87,0.04,,---,0.48,VWS V14.01,2013-02-08 20:17:00,
2013-02-08 15:22:00,32.3,28.9,29.71,East,82,11.0,21.0,87,0.05,,---,0.49,VWS V14.01,2013-02-08 20:22:00,
2013-02-08 15:27:00,32.3,28.9,29.70,ENE,59,4.0,21.0,87,0.05,,---,0.49,VWS V14.01,2013-02-08 20:27:00,
2013-02-08 15:30:00,31.9,28.8,29.68,NNW,345,9.0,21.0,88,0.02,,---,0.50,VWS V14.01,2013-02-08 20:30:00,
2013-02-08 15:32:00,32.2,28.8,29.70,North,355,5.0,15.0,87,0.03,,---,0.49,VWS V14.01,2013-02-08 20:32:00,
2013-02-08 15:37:00,32.2,28.8,29.70,NNE,13,4.0,25.0,87,0.03,,---,0.49,VWS V14.01,2013-02-08 20:37:00,
2013-02-08 15:43:00,32.2,28.8,29.70,North,360,9.0,25.0,87,0.03,,---,0.49,VWS V14.01,2013-02-08 20:43:00,
2013-02-08 15:45:00,31.7,28.6,29.67,NE,47,3.0,15.0,88,0.02,,---,0.51,VWS V14.01,2013-02-08 20:45:00,
2013-02-08 15:48:00,32.1,28.7,29.70,NNE,12,8.0,11.0,87,0.02,,---,0.49,VWS V14.01,2013-02-08 20:48:00,
2013-02-08 15:53:00,32.0,28.6,29.69,NE,38,3.0,15.0,87,0.02,,---,0.49,VWS V14.01,2013-02-08 20:53:00,
2013-02-08 15:58:00,32.0,28.9,29.69,NE,49,12.0,15.0,88,0.03,,---,0.50,VWS V14.01,2013-02-08 20:58:00,
2013-02-08 16:00:00,31.5,28.4,29.67,ENE,58,5.0,17.0,88,0.02,,---,0.51,VWS V14.01,2013-02-08 21:00:00,
2013-02-08 16:03:00,32.1,29.0,29.69,NE,42,5.0,18.0,88,0.03,,---,0.50,VWS V14.01,2013-02-08 21:03:00,
2013-02-08 16:08:00,32.0,28.9,29.69,NNE,29,6.0,18.0,88,0.03,,---,0.50,VWS V14.01,2013-02-08 21:08:00,
2013-02-08 16:13:00,32.0,28.9,29.69,NE,55,4.0,18.0,88,0.03,,---,0.50,VWS V14.01,2013-02-08 21:13:00,
2013-02-08 16:15:00,31.4,28.3,29.67,North,360,3.0,14.0,88,0.01,,---,0.51,VWS V14.01,2013-02-08 21:15:00,
2013-02-08 16:18:00,32.0,28.9,29.69,NNE,24,4.0,9.0,88,0.02,,---,0.50,VWS V14.01,2013-02-08 21:18:00,
2013-02-08 16:23:00,32.0,28.9,29.69,NE,36,7.0,16.0,88,0.02,,---,0.50,VWS V14.01,2013-02-08 21:23:00,
2013-02-08 16:28:00,31.9,28.8,29.68,ENE,63,7.0,21.0,88,0.02,,---,0.50,VWS V14.01,2013-02-08 21:28:00,
2013-02-08 16:30:00,31.3,28.2,29.66,North,360,8.0,14.0,88,0.01,,---,0.51,VWS V14.01,2013-02-08 21:30:00,
2013-02-08 16:33:00,31.9,28.8,29.68,NNE,19,5.0,13.0,88,0.01,,---,0.50,VWS V14.01,2013-02-08 21:33:00,
2013-02-08 16:38:00,31.8,28.7,29.68,NNE,31,8.0,13.0,88,0.01,,---,0.50,VWS V14.01,2013-02-08 21:38:00,
2013-02-08 16:43:00,31.7,28.6,29.67,ENE,68,15.0,15.0,88,0.02,,---,0.51,VWS V14.01,2013-02-08 21:43:00,
2013-02-08 16:45:00,31.3,28.4,29.66,NNE,30,11.0,14.0,89,0.01,,---,0.51,VWS V14.01,2013-02-08 21:45:00,
2013-02-08 16:48:00,31.7,28.6,29.67,ENE,68,10.0,11.0,88,0.02,,---,0.51,VWS V14.01,2013-02-08 21:48:00,
2013-02-08 16:54:00,31.6,28.5,29.67,NNE,33,10.0,17.0,88,0.02,,---,0.51,VWS V14.01,2013-02-08 21:54:00,
2013-02-08 16:59:00,31.5,28.4,29.67,NNE,31,6.0,17.0,88,0.02,,---,0.51,VWS V14.01,2013-02-08 21:59:00,
2013-02-08 17:00:00,31.3,28.4,29.65,NNE,16,2.0,16.0,89,0.00,,---,0.51,VWS V14.01,2013-02-08 22:00:00,
2013-02-08 17:04:00,31.5,28.4,29.67,NNE,22,11.0,14.0,88,0.01,,---,0.51,VWS V14.01,2013-02-08 22:04:00,
2013-02-08 17:09:00,31.5,28.4,29.67,ENE,71,5.0,14.0,88,0.01,,---,0.51,VWS V14.01,2013-02-08 22:09:00,
2013-02-08 17:14:00,31.4,28.3,29.67,NE,46,7.0,14.0,88,0.01,,---,0.51,VWS V14.01,2013-02-08 22:14:00,
2013-02-08 17:15:00,31.3,28.4,29.65,NE,41,8.0,14.0,89,0.00,,---,0.51,VWS V14.01,2013-02-08 22:15:00,
2013-02-08 17:19:00,31.4,28.3,29.67,NNE,23,10.0,10.0,88,0.01,,---,0.51,VWS V14.01,2013-02-08 22:19:00,
2013-02-08 17:24:00,31.4,28.3,29.66,NNE,26,5.0,11.0,88,0.01,,---,0.51,VWS V14.01,2013-02-08 22:24:00,
2013-02-08 17:29:00,31.4,28.3,29.66,NE,46,10.0,14.0,88,0.01,,---,0.51,VWS V14.01,2013-02-08 22:29:00,
2013-02-08 17:30:00,31.2,28.3,29.65,North,5,5.0,16.0,89,0.00,,---,0.51,VWS V14.01,2013-02-08 22:30:00,
2013-02-08 17:34:00,31.3,28.4,29.66,North,360,7.0,14.0,89,0.01,,---,0.51,VWS V14.01,2013-02-08 22:34:00,
2013-02-08 17:39:00,31.3,28.4,29.66,NE,54,5.0,14.0,89,0.01,,---,0.51,VWS V14.01,2013-02-08 22:39:00,
2013-02-08 17:44:00,31.3,28.4,29.66,ENE,57,1.0,14.0,89,0.01,,---,0.51,VWS V14.01,2013-02-08 22:44:00,
2013-02-08 17:45:00,31.3,28.4,29.64,NNE,20,6.0,23.0,89,0.00,,---,0.51,VWS V14.01,2013-02-08 22:45:00,
2013-02-08 17:49:00,31.3,28.4,29.65,NNE,25,3.0,11.0,89,0.00,,---,0.51,VWS V14.01,2013-02-08 22:49:00,
2013-02-08 17:55:00,31.3,28.4,29.65,NNE,26,7.0,14.0,89,0.00,,---,0.51,VWS V14.01,2013-02-08 22:55:00,
2013-02-08 18:00:00,31.3,28.4,29.65,North,360,11.0,16.0,89,0.00,,---,0.51,VWS V14.01,2013-02-08 23:00:00,
2013-02-08 18:05:00,31.3,28.4,29.65,North,355,3.0,12.0,89,0.00,,---,0.51,VWS V14.01,2013-02-08 23:05:00,
2013-02-08 18:10:00,31.3,28.4,29.65,NE,41,7.0,14.0,89,0.00,,---,0.51,VWS V14.01,2013-02-08 23:10:00,
2013-02-08 18:15:00,31.3,28.4,29.65,NNE,28,7.0,14.0,89,0.00,,---,0.51,VWS V14.01,2013-02-08 23:15:00,
2013-02-08 18:20:00,31.3,28.4,29.65,NNE,30,6.0,11.0,89,0.00,,---,0.51,VWS V14.01,2013-02-08 23:20:00,
2013-02-08 18:25:00,31.2,28.3,29.65,NNW,331,6.0,13.0,89,0.00,,---,0.51,VWS V14.01,2013-02-08 23:25:00,
2013-02-08 18:30:00,31.2,28.3,29.65,NE,34,7.0,16.0,89,0.00,,---,0.51,VWS V14.01,2013-02-08 23:30:00,
2013-02-08 18:35:00,31.3,28.4,29.64,ENE,65,5.0,15.0,89,0.00,,---,0.51,VWS V14.01,2013-02-08 23:35:00,
2013-02-08 18:40:00,31.2,28.3,29.64,ENE,71,3.0,17.0,89,0.00,,---,0.51,VWS V14.01,2013-02-08 23:40:00,
2013-02-08 18:45:00,31.3,28.4,29.64,NE,38,15.0,23.0,89,0.00,,---,0.51,VWS V14.01,2013-02-08 23:45:00,
2013-02-08 18:50:00,31.4,28.5,29.64,NNE,30,12.0,17.0,89,0.00,,---,0.51,VWS V14.01,2013-02-08 23:50:00,
2013-02-08 18:55:00,31.4,28.5,29.64,NE,39,10.0,17.0,89,0.00,,---,0.51,VWS V14.01,2013-02-08 23:55:00,
2013-02-08 19:00:00,31.4,28.5,29.64,NNE,20,4.0,17.0,89,0.00,,---,0.51,VWS V14.01,2013-02-09 00:00:00,
2013-02-08 19:06:00,31.4,28.5,29.64,NE,34,9.0,15.0,89,0.00,,---,0.51,VWS V14.01,2013-02-09 00:06:00,
2013-02-08 19:11:00,31.4,28.5,29.65,NNE,13,5.0,15.0,89,0.01,,---,0.52,VWS V14.01,2013-02-09 00:11:00,
2013-02-08 19:15:00,31.1,26.5,29.65,NW,321,5.0,17.0,83,0.01,,---,0.52,VWS V14.01,2013-02-09 00:15:00,
2013-02-08 19:16:00,31.4,28.5,29.64,NE,41,1.0,15.0,89,0.01,,---,0.52,VWS V14.01,2013-02-09 00:16:00,
2013-02-08 19:21:00,31.3,28.2,29.64,NNW,333,1.0,21.0,88,0.01,,---,0.52,VWS V14.01,2013-02-09 00:21:00,
2013-02-08 19:26:00,31.3,28.2,29.64,NE,42,4.0,21.0,88,0.01,,---,0.52,VWS V14.01,2013-02-09 00:26:00,
2013-02-08 19:30:00,30.9,26.1,29.66,NW,325,5.0,15.0,82,0.00,,---,0.52,VWS V14.01,2013-02-09 00:30:00,
2013-02-08 19:31:00,31.2,28.1,29.64,North,9,6.0,10.0,88,0.01,,---,0.52,VWS V14.01,2013-02-09 00:31:00,
2013-02-08 19:36:00,31.2,27.8,29.64,NNE,19,4.0,13.0,87,0.01,,---,0.52,VWS V14.01,2013-02-09 00:36:00,
2013-02-08 19:41:00,31.1,27.4,29.64,NNE,30,4.0,15.0,86,0.01,,---,0.52,VWS V14.01,2013-02-09 00:41:00,
2013-02-08 19:45:00,30.9,25.8,29.67,NNW,338,7.0,11.0,81,0.00,,---,0.52,VWS V14.01,2013-02-09 00:45:00,
2013-02-08 19:46:00,31.1,27.4,29.64,NE,49,17.0,17.0,86,0.01,,---,0.52,VWS V14.01,2013-02-09 00:46:00,
2013-02-08 19:51:00,31.1,27.1,29.65,North,5,10.0,17.0,85,0.01,,---,0.52,VWS V14.01,2013-02-09 00:51:00,
2013-02-08 19:56:00,31.1,27.1,29.65,NNE,32,4.0,17.0,85,0.01,,---,0.52,VWS V14.01,2013-02-09 00:56:00,
2013-02-08 20:00:00,30.6,25.8,29.68,NW,310,5.0,13.0,82,0.00,,---,0.52,VWS V14.01,2013-02-09 01:00:00,
2013-02-08 20:01:00,31.1,26.8,29.65,NNE,20,2.0,8.0,84,0.01,,---,0.52,VWS V14.01,2013-02-09 01:01:00,
2013-02-08 20:06:00,31.0,26.7,29.65,NE,40,5.0,16.0,84,0.01,,---,0.52,VWS V14.01,2013-02-09 01:06:00,
2013-02-08 20:12:00,31.1,26.5,29.65,NW,319,3.0,16.0,83,0.01,,---,0.52,VWS V14.01,2013-02-09 01:12:00,
2013-02-08 20:15:00,30.1,25.6,29.69,NW,308,7.0,17.0,83,0.00,,---,0.52,VWS V14.01,2013-02-09 01:15:00,
2013-02-08 20:17:00,31.1,26.5,29.65,NNW,332,4.0,7.0,83,0.00,,---,0.52,VWS V14.01,2013-02-09 01:17:00,
2013-02-08 20:22:00,31.0,26.5,29.65,ENE,59,8.0,15.0,83,0.00,,---,0.52,VWS V14.01,2013-02-09 01:22:00,
2013-02-08 20:27:00,30.9,26.1,29.66,North,5,2.0,15.0,82,0.00,,---,0.52,VWS V14.01,2013-02-09 01:27:00,
2013-02-08 20:30:00,29.9,26.0,29.69,NNW,330,6.0,12.0,85,0.00,,---,0.52,VWS V14.01,2013-02-09 01:30:00,
2013-02-08 20:32:00,30.9,26.1,29.66,North,349,3.0,7.0,82,0.00,,---,0.52,VWS V14.01,2013-02-09 01:32:00,
2013-02-08 20:37:00,30.9,26.1,29.66,NW,309,7.0,11.0,82,0.00,,---,0.52,VWS V14.01,2013-02-09 01:37:00,
2013-02-08 20:42:00,30.9,26.1,29.67,NW,315,8.0,11.0,82,0.00,,---,0.52,VWS V14.01,2013-02-09 01:42:00,
2013-02-08 20:45:00,29.8,26.1,29.70,NW,319,6.0,15.0,86,0.00,,---,0.52,VWS V14.01,2013-02-09 01:45:00,
2013-02-08 20:47:00,30.8,25.7,29.67,WNW,302,3.0,7.0,81,0.00,,---,0.52,VWS V14.01,2013-02-09 01:47:00,
2013-02-08 20:52:00,30.8,25.7,29.68,NW,320,6.0,8.0,81,0.00,,---,0.52,VWS V14.01,2013-02-09 01:52:00,
2013-02-08 20:57:00,30.7,25.9,29.68,WSW,252,4.0,10.0,82,0.00,,---,0.52,VWS V14.01,2013-02-09 01:57:00,
2013-02-08 21:00:00,29.7,26.3,29.70,NW,315,6.0,12.0,87,0.00,,---,0.52,VWS V14.01,2013-02-09 02:00:00,
2013-02-08 21:03:00,30.6,25.8,29.68,NNW,334,7.0,9.0,82,0.00,,---,0.52,VWS V14.01,2013-02-09 02:03:00,
2013-02-08 21:08:00,30.4,25.6,29.69,WNW,288,8.0,12.0,82,0.00,,---,0.52,VWS V14.01,2013-02-09 02:08:00,
2013-02-08 21:13:00,30.2,25.7,29.69,NW,317,9.0,17.0,83,0.00,,---,0.52,VWS V14.01,2013-02-09 02:13:00,
2013-02-08 21:15:00,29.6,26.5,29.70,NW,311,7.0,14.0,88,0.00,,---,0.52,VWS V14.01,2013-02-09 02:15:00,
2013-02-08 21:18:00,30.1,25.6,29.69,NW,323,8.0,9.0,83,0.00,,---,0.52,VWS V14.01,2013-02-09 02:18:00,
2013-02-08 21:23:00,30.0,25.8,29.69,NNW,346,5.0,9.0,84,0.00,,---,0.52,VWS V14.01,2013-02-09 02:23:00,
2013-02-08 21:28:00,30.0,26.0,29.69,NW,326,4.0,10.0,85,0.00,,---,0.52,VWS V14.01,2013-02-09 02:28:00,
2013-02-08 21:30:00,28.7,25.6,29.71,NW,315,7.0,15.0,88,0.00,,---,0.52,VWS V14.01,2013-02-09 02:30:00,
2013-02-08 21:33:00,29.9,26.0,29.70,NW,306,5.0,8.0,85,0.00,,---,0.52,VWS V14.01,2013-02-09 02:33:00,
2013-02-08 21:38:00,29.9,26.2,29.70,NW,304,8.0,13.0,86,0.00,,---,0.52,VWS V14.01,2013-02-09 02:38:00,
2013-02-08 21:43:00,29.8,26.1,29.70,WNW,298,11.0,15.0,86,0.00,,---,0.52,VWS V14.01,2013-02-09 02:43:00,
2013-02-08 21:45:00,28.2,25.4,29.72,NW,319,4.0,15.0,89,0.00,,---,0.52,VWS V14.01,2013-02-09 02:45:00,
2013-02-08 21:48:00,29.8,26.1,29.70,NW,315,8.0,10.0,86,0.00,,---,0.52,VWS V14.01,2013-02-09 02:48:00,
2013-02-08 21:53:00,29.8,26.4,29.70,NW,305,5.0,12.0,87,0.00,,---,0.52,VWS V14.01,2013-02-09 02:53:00,
2013-02-08 21:58:00,29.8,26.4,29.70,NNW,332,8.0,12.0,87,0.00,,---,0.52,VWS V14.01,2013-02-09 02:58:00,
2013-02-08 22:00:00,27.9,25.1,29.73,NE,49,5.0,15.0,89,0.00,,---,0.52,VWS V14.01,2013-02-09 03:00:00,
2013-02-08 22:03:00,29.7,26.3,29.70,WNW,301,4.0,10.0,87,0.00,,---,0.52,VWS V14.01,2013-02-09 03:03:00,
2013-02-08 22:08:00,29.7,26.3,29.70,NW,313,8.0,11.0,87,0.00,,---,0.52,VWS V14.01,2013-02-09 03:08:00,
2013-02-08 22:13:00,29.6,26.5,29.70,NW,307,5.0,11.0,88,0.00,,---,0.52,VWS V14.01,2013-02-09 03:13:00,
2013-02-08 22:15:00,27.9,25.1,29.73,NW,313,7.0,12.0,89,0.00,,---,0.52,VWS V14.01,2013-02-09 03:15:00,
2013-02-08 22:18:00,29.5,26.4,29.71,NNW,328,8.0,15.0,88,0.00,,---,0.52,VWS V14.01,2013-02-09 03:18:00,
2013-02-08 22:24:00,29.3,26.2,29.71,NNW,329,5.0,15.0,88,0.00,,---,0.52,VWS V14.01,2013-02-09 03:24:00,
2013-02-08 22:29:00,28.8,25.7,29.71,NNW,328,10.0,15.0,88,0.00,,---,0.52,VWS V14.01,2013-02-09 03:29:00,
2013-02-08 22:30:00,28.0,25.2,29.74,NNW,340,6.0,11.0,89,0.00,,---,0.52,VWS V14.01,2013-02-09 03:30:00,
2013-02-08 22:34:00,28.5,25.4,29.72,NW,322,4.0,9.0,88,0.00,,---,0.52,VWS V14.01,2013-02-09 03:34:00,
2013-02-08 22:39:00,28.4,25.6,29.72,North,5,5.0,12.0,89,0.00,,---,0.52,VWS V14.01,2013-02-09 03:39:00,
2013-02-08 22:44:00,28.2,25.4,29.72,WNW,302,7.0,15.0,89,0.00,,---,0.52,VWS V14.01,2013-02-09 03:44:00,
2013-02-08 22:45:00,27.8,25.2,29.75,NNW,338,2.0,14.0,90,0.00,,---,0.52,VWS V14.01,2013-02-09 03:45:00,
2013-02-08 22:49:00,28.1,25.3,29.72,NNW,335,7.0,15.0,89,0.00,,---,0.52,VWS V14.01,2013-02-09 03:49:00,
2013-02-08 22:54:00,28.0,25.2,29.72,North,360,7.0,15.0,89,0.00,,---,0.52,VWS V14.01,2013-02-09 03:54:00,
2013-02-08 22:59:00,27.9,25.1,29.73,NNW,344,1.0,15.0,89,0.00,,---,0.52,VWS V14.01,2013-02-09 03:59:00,
2013-02-08 23:00:00,27.6,25.1,29.76,North,5,7.0,16.0,90,0.00,,---,0.52,VWS V14.01,2013-02-09 04:00:00,
2013-02-08 23:04:00,27.9,25.1,29.73,NNW,348,4.0,10.0,89,0.00,,---,0.52,VWS V14.01,2013-02-09 04:04:00,
2013-02-08 23:09:00,27.9,25.1,29.73,NNW,340,4.0,12.0,89,0.00,,---,0.52,VWS V14.01,2013-02-09 04:09:00,
2013-02-08 23:15:00,27.9,25.1,29.73,NNW,336,12.0,12.0,89,0.00,,---,0.52,VWS V14.01,2013-02-09 04:15:00,
2013-02-08 23:20:00,27.9,25.1,29.74,NW,319,6.0,11.0,89,0.00,,---,0.52,VWS V14.01,2013-02-09 04:20:00,
2013-02-08 23:25:00,28.0,25.2,29.74,WNW,296,9.0,11.0,89,0.00,,---,0.52,VWS V14.01,2013-02-09 04:25:00,
2013-02-08 23:30:00,28.0,25.2,29.74,NNW,336,5.0,11.0,89,0.00,,---,0.52,VWS V14.01,2013-02-09 04:30:00,
2013-02-08 23:35:00,28.0,25.2,29.75,NW,322,4.0,14.0,89,0.00,,---,0.52,VWS V14.01,2013-02-09 04:35:00,
2013-02-08 23:40:00,27.9,25.4,29.75,NNW,342,7.0,14.0,90,0.00,,---,0.52,VWS V14.01,2013-02-09 04:40:00,
2013-02-08 23:45:00,27.8,25.2,29.75,NNW,329,6.0,14.0,90,0.00,,---,0.52,VWS V14.01,2013-02-09 04:45:00,
2013-02-08 23:50:00,27.8,25.2,29.76,NNW,340,3.0,13.0,90,0.00,,---,0.52,VWS V14.01,2013-02-09 04:50:00,
2013-02-08 23:55:00,27.6,25.1,29.76,North,360,8.0,16.0,90,0.00,,---,0.52,VWS V14.01,2013-02-09 04:55:00,